Theta_e
296 289 287 287 290 292 292 292 293 293 292 291 289 288 288 288 289 292 293 292 292 290 289 291 291 291 293 294 296 296 296 294 294 294 295 296 297 298 298 298 298 298 299 301 299 299 299 300 300 300 298 297 297 296 295 294 293 293 293 292 292 292 292 293 292 291 291 289 288 288 289 289 289 289 288 288 288 288 287 289 289 288 287 287 287 287
296 288 288 292 294 294 293 293 293 292 292 291 290 288 289 288 288 293 294 292 290 291 287 290 291 291 292 295 296 296 293 294 295 295 294 295 296 298 298 298 298 299 300 298 296 297 298 298 299 297 297 296 295 294 294 294 293 293 292 292 292 292 292 293 292 292 291 291 290 290 289 289 289 288 288 287 287 288 288 289 288 287 287 287 287 287
290 288 291 293 295 294 292 292 292 292 291 290 289 288 286 288 291 293 293 293 290 289 289 288 288 290 292 294 296 295 295 296 297 297 298 298 297 298 298 298 298 298 298 295 297 296 297 298 298 297 296 296 297 295 294 294 293 292 292 292 292 292 292 292 292 292 291 291 290 290 289 289 288 288 288 287 288 288 288 288 288 287 287 286 286 286
286 289 294 295 294 293 293 292 291 290 290 289 289 286 286 290 287 287 290 289 290 290 284 285 287 289 291 293 294 296 296 297 298 299 299 299 298 298 299 300 300 298 296 296 297 296 296 296 297 296 295 296 296 295 294 293 293 293 293 292 292 292 292 292 292 292 291 291 289 288 288 288 288 287 288 287 287 287 287 287 287 287 287 286 286 286
290 291 295 295 294 294 292 292 290 288 289 290 290 289 289 289 290 289 289 288 288 290 290 288 287 288 290 291 293 296 298 297 298 298 298 299 299 300 300 300 300 299 298 297 295 294 294 294 295 296 296 295 295 294 294 293 293 293 293 293 292 292 292 292 292 292 290 290 288 288 288 287 287 287 286 285 284 286 287 286 286 287 287 286 286 285
291 292 293 294 293 293 292 290 290 289 288 289 289 290 291 291 290 290 290 288 286 284 288 288 284 285 289 291 293 295 291 292 295 295 296 297 298 299 298 299 300 299 299 298 297 296 295 296 295 294 294 294 295 294 294 294 294 294 293 293 292 292 292 291 291 291 290 290 288 287 286 285 285 285 285 285 285 285 286 286 287 286 286 286 285 285
291 293 295 293 292 291 290 290 290 291 290 288 286 291 292 291 290 287 287 287 281 281 287 289 283 283 284 287 290 290 290 292 292 292 295 296 297 297 297 298 298 297 297 296 296 295 294 295 294 294 294 294 294 294 294 294 294 294 293 293 292 292 292 292 291 291 291 289 289 288 288 287 286 286 286 287 287 287 287 286 286 286 286 286 285 285
292 290 292 293 292 291 288 288 291 292 290 287 287 289 289 289 288 288 288 288 286 284 287 287 283 281 285 288 289 291 291 291 292 293 294 295 296 297 298 298 296 296 296 298 297 295 295 295 295 294 294 294 295 294 293 293 293 293 293 292 292 292 292 291 291 291 291 289 289 288 287 288 287 287 286 287 287 287 286 285 285 285 285 285 285 284
291 289 290 290 289 287 289 293 291 293 291 286 289 290 290 291 289 288 287 284 283 282 283 284 287 284 283 286 293 292 289 290 291 293 294 295 296 297 298 298 296 296 296 298 297 295 295 295 295 295 294 294 293 293 293 293 293 293 292 292 292 292 291 291 291 291 290 290 289 289 288 287 288 287 286 286 287 286 286 285 285 285 285 284 284 284
292 291 292 292 290 289 292 289 291 293 290 290 290 289 288 287 287 288 285 285 280 278 281 281 286 281 283 288 285 286 289 289 291 293 294 295 296 297 298 298 297 296 295 297 298 297 296 296 295 295 294 293 293 294 294 293 293 292 292 292 291 291 291 291 290 291 290 290 290 288 288 287 287 286 285 285 285 285 285 285 284 284 284 284 283 283
291 292 294 292 291 292 286 287 287 290 292 290 289 287 284 282 282 280 280 279 280 277 281 283 285 285 280 284 286 286 286 290 292 292 294 294 295 296 297 296 297 296 296 297 296 296 296 295 294 293 293 293 292 292 292 292 292 292 291 291 291 291 291 290 290 290 290 289 289 288 288 287 286 285 285 284 284 284 284 284 284 284 284 283 283 283
290 291 291 289 292 289 289 288 288 288 289 288 285 283 284 283 279 279 277 279 276 278 280 285 284 286 279 280 284 290 290 293 293 291 293 293 294 296 296 296 296 296 296 296 295 294 294 293 292 292 292 292 292 292 292 292 291 291 291 291 291 291 290 290 290 290 290 289 289 289 288 287 287 286 285 285 284 284 284 284 283 283 283 282 282 282
286 287 289 292 292 294 287 288 285 283 287 288 284 284 280 275 276 273 273 273 272 279 279 283 285 280 282 287 286 287 289 290 291 294 294 294 295 295 295 296 297 296 296 296 295 295 294 294 293 292 292 291 291 292 292 292 291 291 291 291 290 290 290 290 290 289 289 289 289 289 288 288 287 286 286 285 285 285 284 284 283 282 282 282 281 281
284 286 288 289 290 292 292 288 282 283 284 285 285 281 278 273 272 270 271 271 273 279 279 281 283 283 286 286 292 293 294 292 292 294 294 295 295 295 295 296 296 296 297 297 297 296 295 294 293 293 293 292 292 292 292 292 291 291 291 290 290 290 290 290 289 289 289 289 289 289 288 288 287 286 286 286 285 285 285 284 283 283 282 282 282 281
279 284 286 289 286 291 293 293 291 288 284 288 285 287 284 280 271 269 272 275 277 280 276 281 279 276 275 282 288 294 296 297 294 294 295 294 294 294 293 293 292 294 294 296 296 296 296 295 294 293 293 293 292 292 292 292 292 291 291 290 290 290 290 290 289 289 289 289 289 289 289 288 287 287 287 286 286 285 284 284 283 283 283 282 282 282
285 286 285 294 288 291 291 294 292 286 285 284 284 287 281 282 281 282 283 276 274 276 278 275 280 278 284 287 288 291 292 292 293 294 293 293 293 291 291 293 295 294 295 295 296 295 295 294 293 293 293 293 292 292 292 292 292 291 291 291 290 290 290 290 289 289 289 289 289 288 288 287 287 287 287 286 285 285 285 284 284 283 282 282 282 281
284 282 286 289 288 290 287 288 291 290 281 282 286 282 286 286 287 283 283 281 277 275 279 277 280 284 286 291 292 293 292 292 292 292 292 293 294 293 293 293 293 294 295 295 295 295 295 293 292 293 293 292 292 291 292 292 292 292 291 291 290 290 290 289 289 289 289 289 288 288 288 287 287 286 286 286 285 284 284 284 283 283 282 281 281 280
286 288 288 287 287 286 284 286 288 287 288 284 279 284 287 287 285 283 276 276 274 272 279 277 279 282 280 281 285 287 288 289 289 291 292 293 294 293 293 292 294 295 295 296 296 295 295 294 294 293 293 293 293 292 292 292 292 292 292 291 290 290 289 289 289 289 289 288 288 288 287 287 287 287 286 286 284 284 283 283 282 281 280 280 280 281
290 284 287 286 285 287 287 289 288 287 288 284 283 286 287 279 278 281 277 276 276 275 277 282 282 282 284 284 286 285 285 287 290 292 292 292 293 292 292 291 292 293 293 293 294 294 294 294 294 293 293 293 293 292 292 292 292 291 291 291 291 290 290 290 290 289 289 288 288 288 287 287 286 286 286 285 284 283 283 282 281 281 280 279 279 280
289 285 285 285 286 287 284 284 281 284 287 286 286 284 283 281 277 279 284 280 280 279 279 280 282 280 286 283 285 287 289 290 290 291 291 293 293 294 293 293 293 293 294 294 295 295 295 295 294 293 293 292 293 292 292 291 291 290 291 290 290 290 289 289 288 288 288 288 288 288 287 286 286 286 285 284 283 282 282 282 281 280 279 279 279 279
287 287 283 286 283 287 283 284 284 286 284 283 284 280 282 281 283 283 282 280 280 276 276 275 276 283 285 287 287 287 288 289 290 290 291 292 293 293 294 295 293 293 294 295 295 295 295 295 293 292 292 292 289 290 289 289 290 291 290 290 290 289 289 289 289 288 288 288 287 287 286 285 285 284 284 283 283 282 282 281 281 280 279 279 278 278
287 285 284 284 282 283 287 288 288 289 291 287 287 285 287 283 281 279 279 285 279 281 278 276 277 284 289 289 289 287 287 288 289 291 291 291 292 293 294 293 292 292 294 296 296 295 295 294 294 293 289 288 288 289 289 290 290 288 289 290 289 289 288 288 288 288 288 287 287 286 286 285 284 284 283 282 282 282 281 280 280 279 278 278 278 278
292 286 286 284 286 288 291 291 290 291 291 290 290 287 289 286 285 283 278 282 280 280 284 283 281 283 290 287 288 288 287 288 288 289 290 291 292 293 293 291 291 292 295 296 295 295 294 293 294 293 292 291 291 291 291 290 289 289 289 289 289 288 288 289 289 288 287 286 286 285 285 284 283 283 282 281 281 281 280 280 279 279 278 278 277 277
293 286 284 286 289 288 290 286 287 287 288 285 285 286 285 285 286 285 284 284 283 281 282 282 280 284 291 290 290 289 286 286 288 289 291 291 292 292 291 291 293 293 293 292 293 292 294 291 290 288 289 290 290 290 290 290 290 290 289 289 288 288 288 288 288 287 286 286 285 284 283 283 282 281 281 281 281 280 280 279 278 278 278 277 277 276
286 286 286 283 282 283 285 288 287 284 285 282 283 286 287 287 285 285 285 284 282 283 284 281 276 282 291 289 288 290 287 289 290 290 290 291 291 290 290 290 291 291 290 288 289 291 291 289 289 291 291 291 291 291 291 290 290 289 289 288 288 289 289 288 287 286 286 285 284 283 283 282 282 281 281 281 280 280 279 278 278 277 277 276 276 276
289 285 284 279 277 275 275 276 278 282 282 283 283 285 287 287 286 283 281 283 279 283 284 281 281 286 291 292 290 290 288 287 287 287 286 287 287 290 290 290 290 290 291 290 289 289 290 292 292 291 291 291 291 291 291 290 290 289 289 288 289 288 288 287 286 286 285 284 284 282 282 282 281 281 281 280 280 279 278 277 277 277 276 276 276 275
286 285 285 284 283 281 284 285 285 284 282 281 283 285 286 287 286 286 285 283 280 283 282 284 285 285 286 289 290 292 293 292 292 292 292 292 293 292 289 290 291 293 293 292 291 292 290 290 291 292 292 291 291 290 290 290 289 289 289 288 287 288 287 287 286 285 284 284 283 282 282 282 281 281 280 280 279 278 277 277 276 276 276 276 276 275
285 285 287 286 285 287 288 288 290 289 286 286 285 285 286 285 286 284 282 281 287 283 279 286 287 285 286 289 291 292 293 293 294 294 294 294 294 294 292 290 291 290 289 288 288 289 291 292 293 291 290 290 290 290 289 289 289 289 288 288 287 287 286 286 285 284 284 283 283 282 282 282 281 280 280 279 278 277 276 276 276 276 276 275 275 274
285 284 287 286 286 288 288 288 289 288 288 287 287 287 286 287 286 284 284 286 286 282 280 286 287 285 288 291 293 294 294 294 294 293 294 294 294 293 289 288 288 288 288 286 289 291 292 292 292 290 290 290 290 289 288 288 287 286 286 286 286 286 286 286 285 284 283 283 282 282 282 281 280 279 279 278 277 276 276 276 275 275 274 274 274 274
287 284 287 287 285 286 287 287 288 287 286 287 286 287 287 287 286 286 286 287 287 285 287 287 287 287 290 291 293 294 295 295 295 295 295 294 295 295 294 292 292 292 291 289 290 291 291 291 291 291 291 290 290 289 289 287 286 286 286 286 286 286 286 285 284 284 283 283 283 282 281 280 279 278 277 277 276 276 275 275 274 274 273 273 273 273
288 283 289 286 284 284 286 287 287 286 286 285 286 287 287 287 287 287 287 287 287 286 287 287 286 286 291 294 294 295 296 296 295 294 295 295 296 295 295 294 294 294 294 294 291 290 291 291 291 291 291 291 291 290 289 288 287 287 286 286 285 285 285 285 284 283 283 283 282 281 280 279 278 277 276 276 276 275 275 274 274 273 273 272 272 272
288 284 289 285 281 281 285 285 285 286 285 285 284 286 286 286 284 286 285 287 286 284 286 286 284 284 290 293 294 294 295 294 294 294 295 295 296 295 294 294 294 294 294 294 293 290 290 290 290 291 291 291 291 290 289 288 287 286 285 285 285 285 284 284 284 283 283 282 281 280 279 278 277 276 276 275 275 274 274 273 273 272 272 271 271 271
285 284 283 283 280 280 285 286 284 284 283 280 281 285 287 287 288 289 289 290 289 289 285 283 284 290 292 293 292 293 293 293 294 294 295 295 295 295 294 293 293 293 294 294 293 291 290 290 291 292 292 292 291 291 290 289 288 286 286 285 285 284 283 283 283 283 282 281 280 279 278 277 276 275 275 275 274 274 273 273 272 272 271 270 271 270
285 285 284 286 280 281 285 284 285 281 274 276 288 290 289 287 288 286 286 288 290 290 288 290 291 293 293 292 292 292 293 293 294 296 296 296 295 294 294 294 294 294 293 293 292 291 290 291 292 292 291 292 292 291 292 290 288 288 287 286 284 283 283 283 282 281 281 280 279 278 277 276 275 275 275 274 274 273 273 272 272 272 271 271 271 270
285 285 283 286 282 280 285 284 280 273 276 287 291 292 292 291 291 289 289 290 291 292 291 290 291 291 293 294 294 294 294 295 296 296 296 296 294 294 294 295 295 294 293 292 292 293 292 292 292 291 290 290 290 290 290 289 288 287 283 283 282 282 282 281 281 280 280 279 278 277 276 276 275 275 274 274 273 273 272 272 272 271 271 271 270 270
286 285 285 284 284 284 281 280 273 274 284 284 290 291 292 292 290 289 287 289 291 291 291 290 291 292 293 293 294 295 295 295 295 295 294 295 296 296 294 294 295 295 294 294 293 294 294 292 291 291 291 291 289 289 289 289 288 285 283 282 282 281 281 280 280 279 279 278 277 277 276 276 275 275 274 273 273 272 272 272 272 271 270 270 269 269
288 287 286 281 286 278 279 280 279 286 284 284 284 285 288 285 286 285 282 286 291 292 292 290 291 292 293 294 294 294 295 293 291 292 294 293 292 291 291 292 293 294 294 294 294 294 294 292 291 291 290 289 289 289 289 288 284 283 280 280 280 279 279 279 279 279 278 278 277 277 276 276 275 274 273 273 272 272 272 271 271 270 270 269 269 269
290 286 286 283 280 286 279 278 279 278 275 281 289 291 293 292 292 291 287 285 289 283 286 287 286 286 285 285 285 287 289 287 286 287 290 290 291 290 290 290 290 290 290 291 291 291 290 289 288 288 288 289 288 287 286 282 282 281 280 280 278 278 278 279 279 279 278 278 278 277 276 276 275 274 273 273 272 272 272 271 270 270 270 269 268 268
288 288 286 283 281 283 280 277 277 275 279 286 284 289 292 293 292 291 286 281 283 282 285 284 282 283 282 281 282 284 284 282 282 284 289 289 289 289 288 289 289 289 289 289 288 288 289 290 289 288 286 285 285 282 280 281 281 281 280 279 278 278 278 278 279 279 278 278 277 276 275 275 275 274 273 272 272 272 271 270 269 270 269 269 269 269
283 283 284 281 279 281 280 278 276 281 279 278 279 283 286 288 291 286 276 276 280 282 284 282 280 281 281 281 281 281 280 277 278 282 286 287 287 287 287 287 287 288 289 289 289 287 287 286 287 288 286 285 282 278 279 280 280 280 278 277 276 277 277 278 279 279 276 276 276 275 275 275 275 274 273 272 272 271 271 270 269 269 268 268 268 268
278 281 282 278 280 280 280 278 281 282 284 279 280 283 283 285 286 277 273 276 282 282 283 282 279 280 281 280 281 278 279 282 283 284 286 286 285 285 286 286 286 287 288 288 288 287 288 287 285 285 284 282 278 278 278 279 280 279 277 276 276 277 278 279 278 277 277 276 275 275 275 275 275 274 273 273 272 271 270 269 269 268 268 267 267 267
275 279 279 282 278 278 279 277 277 282 281 282 282 284 283 284 279 273 279 285 284 281 281 282 280 280 280 280 280 280 281 283 283 284 283 283 283 283 284 284 285 286 287 288 288 287 287 286 285 285 283 279 278 277 278 280 281 279 277 277 277 278 279 278 277 277 276 276 275 275 274 274 274 273 272 272 271 269 268 268 268 268 267 267 266 266
274 274 270 272 276 279 279 275 276 272 279 283 282 281 283 273 273 280 283 284 285 282 281 281 280 280 281 280 281 281 282 282 282 282 283 283 283 283 283 283 283 284 285 286 287 288 287 286 288 287 285 281 279 279 280 281 282 280 279 278 280 280 279 277 276 276 275 275 273 273 273 273 272 272 271 270 270 269 268 267 267 267 266 266 266 265
279 272 272 275 279 271 271 271 272 277 279 284 281 275 279 280 283 284 284 280 282 281 280 280 280 281 281 280 280 281 282 282 282 283 283 283 284 284 284 284 284 284 285 286 286 287 287 287 287 286 285 280 279 280 282 282 282 281 279 280 279 277 276 276 275 275 274 273 273 272 272 271 271 271 270 269 269 268 267 266 266 266 266 266 265 264
282 274 275 271 278 274 269 274 278 281 281 283 284 281 281 283 284 284 283 282 280 279 281 279 279 281 282 281 281 281 281 282 282 283 282 283 284 284 284 284 285 285 285 286 286 287 287 287 287 286 285 282 279 279 280 282 283 282 280 282 279 278 276 276 275 274 273 272 271 271 271 270 269 269 268 268 268 267 266 265 265 265 265 265 265 264
280 280 280 277 274 279 280 281 281 280 280 281 282 283 282 283 285 285 283 279 280 280 280 280 281 281 281 282 281 281 281 282 282 283 283 284 284 284 285 285 286 287 287 287 287 288 287 287 286 284 285 285 280 278 280 281 283 282 283 280 278 278 276 275 274 273 272 271 270 270 269 269 268 267 267 267 268 267 267 265 265 264 264 264 264 264
276 278 276 273 276 274 268 278 278 279 280 281 281 281 284 286 285 281 280 280 280 280 280 281 281 281 281 281 281 280 280 282 282 282 282 282 282 283 283 284 285 286 286 286 288 288 288 287 287 287 287 287 285 280 280 280 281 283 282 278 278 277 275 273 273 273 271 270 269 268 268 268 267 266 266 267 267 267 266 266 265 264 264 264 264 265
269 277 273 273 273 272 272 277 278 280 280 281 280 278 278 279 280 280 280 280 280 280 280 281 281 280 281 279 279 279 279 280 280 280 280 280 281 281 282 283 283 284 285 286 287 287 287 287 287 287 287 287 287 283 281 280 281 282 280 277 277 275 273 273 272 272 270 269 268 267 267 267 265 265 265 266 266 266 265 265 265 264 264 264 265 265
273 275 268 270 271 273 276 277 278 279 279 278 278 278 279 279 279 279 280 280 280 279 279 279 279 279 279 278 279 279 278 279 279 279 279 280 280 280 281 282 283 283 284 284 285 286 286 286 286 287 287 287 287 286 284 282 282 281 280 277 275 274 273 272 271 271 269 268 267 266 266 266 265 265 265 265 265 266 265 264 265 264 265 267 268 268
273 270 273 272 268 269 269 272 275 270 270 275 277 278 278 278 278 277 278 277 278 277 277 277 277 278 278 278 278 278 277 277 278 278 278 279 279 280 280 281 281 282 282 283 284 284 284 285 285 285 286 286 286 285 285 284 283 281 280 277 274 273 273 271 270 269 268 267 266 265 265 265 264 265 265 265 264 264 264 266 268 267 266 266 270 271
273 273 273 270 269 269 274 275 276 275 274 275 277 278 276 276 276 275 275 276 276 276 276 276 275 276 276 276 277 276 276 276 276 277 277 278 279 279 280 280 280 280 281 282 282 282 282 283 284 284 284 285 286 285 284 284 283 280 277 275 274 273 273 272 270 268 267 266 265 265 265 264 264 264 264 264 264 264 263 264 267 271 271 270 271 272
Wind_Speed
5 7 8 9 13 13 9 13 17 16 10 10 7 7 12 12 12 12 13 6 5 3 10 15 17 16 18 20 18 16 11 10 12 11 12 13 14 15 14 13 14 15 19 15 7 10 13 14 13 12 11 11 11 12 13 14 14 15 16 14 15 13 13 13 12 12 12 12 8 6 10 11 10 10 8 7 7 8 7 9 9 8 8 8 8 7
5 8 10 14 17 14 12 12 11 10 8 11 12 10 13 6 15 14 12 2 4 6 5 11 15 16 18 20 19 11 6 13 14 13 13 15 16 16 15 16 16 19 13 6 5 7 8 10 9 9 10 10 13 11 13 16 16 15 15 17 15 12 13 14 15 13 13 13 14 14 13 11 10 10 10 10 9 9 7 9 9 9 8 9 8 8
7 13 12 19 13 6 6 6 9 11 11 10 11 11 9 10 12 13 9 7 4 5 12 7 12 15 17 20 18 13 11 12 13 15 17 16 15 14 15 17 17 15 14 7 9 7 10 11 11 11 11 13 17 16 18 17 16 16 16 15 14 14 14 13 13 13 14 10 8 9 7 10 7 4 4 5 6 7 8 8 9 8 9 9 8 8
8 7 19 11 7 9 10 7 7 7 7 8 10 8 13 8 4 14 5 1 3 8 4 5 11 11 10 13 16 16 12 13 14 16 17 16 17 16 18 18 16 14 12 12 12 10 9 11 11 10 11 13 12 13 12 14 17 14 15 15 15 15 14 13 14 13 10 9 6 4 5 4 5 5 6 5 5 6 7 8 8 8 9 9 9 9
18 6 7 9 10 12 15 10 6 7 13 11 14 11 11 10 12 12 10 2 2 4 3 8 12 13 10 16 16 16 16 15 15 15 16 17 15 17 15 16 16 16 14 13 9 6 8 10 13 16 14 11 14 14 15 15 16 13 17 16 16 15 16 14 13 13 10 8 6 6 6 5 5 5 5 6 6 8 8 8 9 11 9 9 9 8
15 7 6 10 12 12 11 10 9 8 14 13 9 11 16 12 13 12 10 7 5 6 4 3 9 13 9 19 20 13 4 7 11 13 17 18 18 17 16 20 20 11 12 14 13 13 13 14 11 8 9 13 13 15 15 15 16 15 14 15 15 13 13 13 13 13 11 12 12 11 10 10 8 8 10 14 16 13 13 14 9 7 9 9 8 8
8 7 8 8 9 11 9 9 8 11 15 11 7 12 13 10 10 7 8 3 7 7 4 2 8 18 6 7 9 8 7 12 7 8 14 14 14 15 16 16 15 11 11 8 7 7 10 10 11 11 13 15 15 14 11 12 14 15 15 15 16 14 12 12 13 14 12 12 12 15 15 14 15 15 12 10 8 11 9 7 10 9 8 9 10 8
4 5 11 11 11 10 7 8 9 15 11 11 2 6 6 6 6 8 6 8 9 1 3 0 3 7 21 9 6 10 11 10 10 11 11 12 13 15 16 14 12 12 10 10 11 11 13 14 16 18 17 14 15 11 11 12 12 15 15 14 14 12 12 12 12 14 14 14 13 13 13 12 13 14 13 12 10 8 7 9 10 9 9 9 8 8
5 3 8 10 7 8 11 19 5 11 8 4 2 6 5 7 6 2 2 4 3 4 10 9 2 6 15 5 15 15 12 12 13 14 14 15 15 16 17 15 11 12 10 10 10 12 14 15 15 13 13 12 9 11 13 13 13 12 12 13 13 14 13 12 14 15 15 14 14 14 12 12 11 9 7 7 6 8 8 10 8 9 9 8 8 8
2 3 7 9 8 12 10 0 8 11 7 4 3 4 4 3 3 1 1 0 4 3 15 8 9 7 22 10 5 5 10 13 13 16 17 16 15 17 18 15 11 9 6 8 11 12 13 13 13 11 7 9 12 10 10 10 11 11 11 13 15 15 13 12 14 15 15 15 13 13 14 15 11 8 6 7 9 9 9 11 10 9 9 9 8 9
3 3 3 5 9 4 4 1 1 1 2 3 4 3 5 6 3 3 4 2 4 8 13 13 12 10 14 5 11 10 8 13 13 8 10 10 11 15 16 11 11 10 7 8 8 7 8 7 7 7 12 12 8 8 10 10 11 11 12 13 16 16 13 13 15 16 17 15 14 15 15 16 14 12 10 10 9 9 9 11 11 10 9 9 9 8
1 1 2 4 4 4 4 3 4 1 1 2 2 2 4 6 5 2 2 2 3 14 3 14 15 15 13 3 3 6 1 12 14 11 13 11 15 16 14 10 12 10 7 6 5 6 7 6 6 7 9 11 12 9 11 11 11 12 13 13 15 14 15 14 15 16 17 16 16 14 15 16 15 14 13 15 15 14 15 13 12 9 8 8 8 8
8 12 3 1 3 10 3 2 2 3 2 4 5 6 2 5 5 3 2 1 7 14 2 8 11 1 23 10 2 5 3 5 6 10 13 14 15 15 11 12 13 9 5 7 7 8 9 11 12 12 11 9 12 15 14 14 13 13 13 15 16 17 16 16 16 18 17 16 16 17 16 15 13 15 15 15 14 13 13 12 12 12 11 9 9 10
8 3 6 5 2 5 9 8 1 2 6 7 8 6 5 4 3 5 5 4 5 9 4 6 3 14 9 4 12 16 16 10 10 12 12 13 14 15 14 13 11 7 8 9 10 10 11 12 11 12 13 14 13 14 15 14 14 13 13 15 17 19 16 15 15 17 17 19 18 15 15 14 13 14 14 13 13 13 12 12 14 14 14 13 14 13
5 9 8 8 6 7 15 14 17 10 9 13 4 13 12 9 5 3 6 8 10 11 2 1 6 8 2 6 7 17 18 16 11 11 12 13 12 12 8 8 5 5 5 7 10 12 13 13 13 13 14 13 13 14 14 13 14 13 14 16 18 16 17 17 18 15 18 17 16 15 14 13 12 13 13 12 11 12 13 12 13 12 11 12 12 12
11 14 5 16 1 10 14 14 6 6 2 3 3 1 1 9 6 10 7 3 3 6 8 3 8 4 6 1 3 5 5 6 8 13 11 12 11 8 7 9 8 6 6 8 9 9 9 10 9 9 10 12 11 13 13 14 14 14 17 17 19 20 19 18 18 18 19 17 14 14 15 16 14 11 10 9 9 11 13 14 14 13 12 11 10 9
0 8 1 4 6 6 4 2 5 7 6 4 8 8 13 3 6 5 6 2 1 1 18 2 7 10 7 16 11 18 12 13 9 9 8 10 12 12 12 10 6 6 7 7 8 10 10 7 9 11 11 10 10 10 14 18 19 21 19 17 19 18 14 16 18 18 15 15 14 17 16 14 13 14 15 15 14 13 12 12 12 12 12 10 9 9
7 9 2 6 4 2 1 1 2 3 3 8 4 8 2 2 3 4 5 4 1 6 12 3 9 14 4 16 4 5 2 6 6 9 12 14 14 14 11 8 7 9 11 11 9 7 9 11 11 11 10 13 16 18 18 18 16 15 16 17 19 16 18 19 18 17 16 16 17 16 16 16 16 15 14 12 12 11 11 11 10 9 9 11 10 10
2 10 5 1 2 3 2 1 5 2 1 3 6 2 7 4 4 3 3 5 6 8 7 11 11 12 15 16 7 7 3 8 12 14 13 12 13 11 10 8 5 5 4 5 8 8 9 11 13 14 15 13 12 12 12 11 11 11 12 14 15 19 21 18 14 13 12 14 13 13 16 16 15 13 12 10 10 10 12 13 12 12 11 9 9 10
1 8 3 1 4 0 1 3 8 4 1 1 2 1 1 1 3 7 8 3 4 14 8 15 14 16 8 3 4 10 13 12 11 10 10 14 15 13 11 11 10 10 10 9 8 9 11 12 11 12 13 14 18 17 15 14 12 13 15 14 14 13 10 10 14 16 16 16 14 13 11 12 13 12 12 12 12 12 13 12 12 12 11 12 10 10
8 4 13 2 4 1 5 6 10 12 10 3 1 3 2 1 3 3 2 5 8 8 9 8 12 18 6 6 4 8 9 8 9 10 11 11 11 12 12 13 10 8 9 10 11 11 12 12 11 10 10 10 6 4 4 8 14 16 11 11 13 16 17 16 17 15 15 13 14 14 15 15 13 14 11 11 12 13 12 11 11 12 11 10 11 11
2 2 13 2 1 7 15 5 11 12 14 12 13 13 14 8 3 5 12 2 3 8 9 9 16 17 6 1 4 3 5 8 11 11 11 10 11 11 12 13 10 7 9 11 12 11 10 10 10 9 6 3 5 8 9 12 10 9 14 17 15 12 12 15 15 15 17 15 13 14 14 13 11 11 10 12 12 13 12 11 12 11 11 13 11 12
9 3 6 9 10 15 12 7 9 11 9 10 12 10 10 8 7 8 16 11 1 4 2 8 11 22 4 3 3 3 2 4 5 6 7 9 12 13 13 10 6 7 10 13 11 9 9 9 10 10 10 11 12 13 13 12 13 15 16 14 13 15 17 16 17 14 12 12 13 15 12 11 11 12 12 13 12 13 12 12 11 11 13 12 11 10
6 1 5 11 7 5 9 2 1 3 3 3 5 4 3 11 13 13 10 5 9 4 9 9 15 16 12 1 5 5 3 4 6 7 10 10 10 11 10 7 10 11 12 8 6 5 7 6 4 4 6 11 12 11 13 14 14 13 12 14 14 16 18 16 13 12 12 13 13 12 11 13 12 13 14 14 13 14 13 11 11 10 12 12 11 12
4 3 6 11 7 3 5 10 8 2 2 3 3 6 8 8 6 8 6 1 11 14 14 11 19 11 13 2 3 8 2 7 8 8 7 10 8 5 6 6 6 6 6 5 5 6 5 4 5 10 11 12 13 13 14 14 14 14 15 13 15 17 17 14 11 12 13 13 13 12 13 13 13 15 15 15 13 14 12 12 11 10 11 11 11 10
6 4 5 6 10 10 9 9 11 13 7 4 2 6 10 11 15 7 11 9 15 9 15 15 15 12 15 13 11 11 8 5 6 5 5 3 5 6 6 6 7 7 8 7 5 4 6 9 10 9 9 11 13 14 13 14 14 13 13 15 15 15 12 13 12 12 12 12 13 13 15 15 14 16 17 16 14 14 13 12 11 11 9 11 12 11
4 4 7 10 10 12 12 13 4 5 2 2 5 7 8 6 5 9 9 11 14 10 14 15 16 15 13 15 22 23 19 17 14 11 11 10 11 11 8 9 9 10 10 10 7 7 7 7 10 13 14 12 12 12 12 13 14 13 13 14 12 13 13 12 12 13 13 13 14 14 15 16 17 16 15 15 13 11 11 12 12 12 12 11 12 12
3 9 17 20 21 19 19 18 14 12 12 11 9 12 9 7 7 8 9 14 10 11 18 11 13 13 11 12 20 25 26 23 18 16 14 11 12 13 10 8 10 10 7 4 4 7 12 15 15 13 12 12 13 12 11 11 12 13 14 15 14 12 12 11 13 14 14 14 14 15 16 16 15 13 13 11 11 12 12 12 12 12 11 10 12 12
6 12 16 16 23 21 20 17 17 17 16 17 18 16 19 18 14 16 16 17 15 15 19 11 13 17 17 20 23 27 29 29 23 14 15 14 12 9 6 6 8 8 7 5 9 14 14 14 14 13 11 12 12 12 14 13 11 9 9 9 9 10 14 13 13 13 14 14 15 16 15 12 11 10 11 12 12 13 13 13 12 10 10 9 9 8
3 11 10 16 21 19 19 21 20 22 21 20 19 19 19 18 20 20 21 22 22 22 20 21 24 27 24 23 23 26 28 25 21 18 16 18 22 21 13 12 14 12 11 11 14 15 15 15 14 12 11 12 14 15 14 12 12 12 14 14 13 14 12 11 14 15 15 16 16 14 12 12 11 12 12 13 14 13 12 11 10 10 10 10 9 9
10 6 13 14 14 16 18 20 20 22 20 24 21 21 21 22 23 26 24 22 22 24 25 29 27 25 18 21 24 24 23 20 20 22 26 28 26 22 20 21 20 16 17 17 14 14 13 13 12 12 13 14 14 15 15 14 14 13 13 12 12 13 12 14 14 14 15 16 14 12 12 12 12 12 14 13 12 11 13 13 11 12 11 10 10 10
11 8 8 8 11 13 14 21 22 22 22 24 22 22 22 24 26 23 20 22 22 26 26 24 20 19 20 24 24 23 24 24 25 27 28 26 26 22 21 21 19 16 15 17 15 12 13 12 12 13 15 16 16 15 13 13 13 12 13 12 13 13 11 13 13 15 15 14 12 12 14 13 13 13 13 13 13 13 13 12 12 13 12 12 12 11
6 4 6 8 15 17 14 20 21 21 19 19 20 25 31 30 26 25 25 24 24 24 22 19 21 20 23 19 21 20 23 25 26 25 26 27 25 24 21 16 16 16 16 17 13 12 12 13 14 16 16 15 14 14 15 16 13 13 14 14 14 10 12 14 14 14 12 12 13 13 13 12 14 13 13 14 13 13 13 13 13 13 13 14 12 10
7 9 10 5 9 6 9 16 12 14 19 19 16 30 29 30 29 29 25 27 29 21 19 20 23 21 20 18 20 23 24 25 24 24 22 19 16 15 16 16 15 16 14 12 12 10 11 12 12 12 15 15 15 15 16 13 15 16 15 13 9 12 13 14 12 12 12 11 12 13 13 13 14 14 14 13 13 13 14 14 15 13 12 11 11 12
9 10 11 6 10 13 11 13 14 21 20 7 13 15 24 29 28 28 28 26 25 24 26 26 26 25 26 24 22 22 22 22 22 21 18 15 12 14 18 19 17 15 13 11 11 11 11 12 12 12 12 11 12 12 10 9 10 10 6 8 11 11 12 11 11 11 12 13 12 12 12 14 14 14 14 14 14 14 15 16 14 14 13 12 13 13
14 14 11 11 10 10 9 11 18 16 1 5 4 13 13 17 19 20 22 23 26 27 28 29 29 28 26 25 24 22 23 22 17 12 12 15 16 17 18 17 19 18 16 13 13 13 12 11 14 14 14 10 7 9 8 11 10 8 9 8 11 11 11 12 13 13 12 13 14 15 15 15 15 14 14 15 15 15 16 15 15 14 11 10 8 7
22 17 12 15 12 18 15 16 23 11 11 6 3 2 9 12 9 15 19 20 23 25 24 25 25 25 23 21 20 19 18 15 12 11 4 14 18 19 19 18 17 17 17 16 15 15 15 11 10 11 8 6 7 7 10 9 5 7 7 9 9 11 10 11 12 14 14 14 14 15 15 15 15 15 14 14 15 15 14 14 12 10 9 10 10 10
16 20 13 17 9 15 17 14 12 8 11 8 14 11 12 16 16 16 15 17 10 21 24 19 17 17 18 18 20 19 9 7 10 4 11 17 17 20 18 17 17 17 15 16 16 14 11 10 7 6 6 9 8 5 3 3 6 8 9 8 8 11 11 12 14 14 14 15 14 14 14 13 14 15 14 15 16 16 14 12 10 12 11 13 12 11
14 14 14 13 11 9 12 13 12 12 9 6 8 8 11 14 16 15 12 12 9 19 19 15 16 16 17 18 17 16 14 8 8 10 13 16 17 15 17 17 16 15 14 14 14 14 14 12 9 7 3 1 3 1 4 6 8 9 8 8 9 9 11 14 13 13 15 13 11 11 11 12 13 14 15 16 15 14 15 15 14 12 11 10 10 10
7 9 8 12 11 12 16 16 14 5 3 9 14 15 15 13 5 6 11 3 11 9 13 16 17 16 16 16 15 12 12 10 11 15 18 18 15 14 11 16 17 17 16 15 16 11 10 9 9 9 8 5 3 1 4 6 8 7 8 7 7 8 11 13 12 7 5 7 10 10 11 12 14 14 15 15 14 12 13 11 11 12 12 10 10 10
3 6 8 13 12 15 17 14 9 7 3 10 11 15 19 12 5 5 7 8 10 10 12 11 13 11 13 12 12 11 10 6 10 15 16 16 16 17 16 12 13 13 11 12 13 12 11 10 8 7 7 6 3 1 1 4 6 6 6 7 8 11 14 9 7 8 8 8 10 11 13 11 13 15 13 13 14 13 12 12 15 13 13 13 10 11
8 7 5 8 14 15 16 19 19 10 4 9 14 12 14 7 7 3 10 7 5 11 12 9 12 12 12 8 10 9 11 12 11 12 14 15 14 14 14 15 15 16 14 10 10 9 10 9 9 9 7 3 1 1 2 4 6 6 7 8 10 14 5 5 6 7 8 10 10 11 12 12 11 11 12 12 12 13 12 10 12 12 13 11 13 13
5 7 5 7 8 9 6 8 8 10 4 15 12 10 10 6 7 10 10 2 4 8 12 13 11 13 11 14 14 12 12 14 11 12 13 16 17 17 16 16 16 15 15 16 18 15 11 11 12 11 8 4 0 1 1 2 4 5 7 9 14 6 7 6 7 8 9 9 9 10 10 10 13 12 11 12 12 14 13 12 12 12 12 14 13 12
3 10 7 4 4 5 6 5 2 5 10 9 9 5 9 5 7 9 3 6 6 6 11 11 12 10 10 13 15 16 15 14 14 12 12 13 15 16 16 15 14 13 13 13 10 11 12 12 12 11 9 5 2 3 3 6 5 5 7 13 4 6 7 8 8 8 9 9 10 10 11 11 11 11 11 13 13 12 13 13 12 13 12 13 16 16
2 4 2 9 4 3 4 10 15 17 14 6 2 10 11 12 6 2 3 6 9 10 6 10 14 13 11 11 11 12 14 14 14 14 14 15 15 16 17 17 16 16 16 16 17 15 11 12 13 12 11 8 5 4 6 6 9 9 11 8 6 8 9 10 10 11 11 11 10 10 9 9 10 10 10 11 13 14 13 13 14 14 12 16 9 8
8 15 6 4 8 10 12 10 14 15 13 11 11 7 8 7 3 6 5 9 8 10 10 10 10 11 10 8 8 10 9 12 15 15 13 13 13 14 15 15 16 15 15 14 14 14 12 12 12 11 12 12 6 5 6 7 7 10 12 4 8 8 9 10 11 10 11 10 10 11 11 12 10 11 11 13 12 13 13 15 15 16 10 13 9 8
2 3 7 7 7 10 14 5 8 7 15 17 16 7 3 6 7 4 7 5 8 10 9 6 6 7 8 7 9 11 14 13 13 14 15 14 15 15 16 16 16 16 16 17 15 13 11 9 12 14 13 14 10 7 7 8 9 9 0 5 6 7 9 10 11 11 10 11 10 10 12 15 13 12 12 13 11 10 11 12 12 13 10 9 10 12
7 1 8 7 14 11 12 11 13 14 17 15 11 12 11 5 6 4 3 4 4 4 3 4 6 7 8 9 10 10 12 13 13 14 15 15 15 15 16 15 16 17 15 14 15 14 12 12 12 14 13 13 11 6 8 8 10 10 6 5 7 8 10 11 12 12 12 12 11 10 11 11 12 13 11 12 13 13 11 9 7 10 11 12 13 13
8 5 8 4 12 12 15 14 14 15 10 11 13 10 10 8 3 3 1 2 4 3 5 6 5 8 8 10 10 11 12 14 14 14 15 15 15 14 14 15 15 16 16 16 14 13 14 14 15 15 14 13 10 8 8 10 11 8 8 8 8 10 12 11 11 10 11 11 10 11 11 10 12 12 12 12 12 11 9 9 11 9 4 8 11 13
7 10 12 9 10 11 10 12 8 11 13 14 12 10 6 2 4 4 4 2 3 4 6 9 9 8 8 9 12 11 13 14 15 14 14 15 15 15 15 15 15 16 16 15 14 14 15 15 15 16 16 15 12 9 9 11 10 9 9 9 10 11 12 11 10 10 11 11 11 10 11 11 11 11 12 12 13 12 8 5 11 12 14 13 12 10
11 11 9 10 10 13 11 12 10 12 14 12 14 12 3 4 4 5 5 5 3 3 5 7 10 10 10 10 8 12 13 14 16 15 14 13 15 14 15 16 17 16 17 16 16 16 15 15 15 15 16 15 13 11 11 11 10 8 8 9 10 12 12 12 11 10 9 10 12 13 14 12 12 13 11 12 12 11 8 10 11 18 15 12 14 14
Wind_Direction
140 170 177 198 226 224 211 200 214 227 231 253 265 264 254 259 266 262 272 242 203 212 212 224 233 239 250 253 250 247 257 264 255 241 240 242 246 246 247 242 239 242 243 249 207 201 201 200 194 187 177 177 177 176 172 170 175 173 173 168 176 176 169 165 166 171 167 168 164 171 183 183 181 177 172 175 173 173 168 163 163 162 160 161 160 162
129 199 209 217 225 224 214 212 225 245 239 240 250 254 261 240 264 253 264 234 221 191 251 231 243 245 247 255 257 251 230 246 249 247 237 240 239 246 248 250 247 246 256 267 220 213 205 200 188 173 172 164 171 183 171 176 178 175 173 177 174 174 176 178 177 174 177 179 181 177 185 177 176 169 174 179 183 177 167 163 164 164 164 164 164 166
204 216 219 225 229 244 230 210 214 217 232 239 240 248 267 256 259 271 252 247 242 177 259 245 251 248 249 254 260 254 232 236 240 243 248 245 245 246 249 249 248 250 253 253 245 210 202 195 182 175 179 184 182 175 180 179 173 176 177 180 175 179 179 183 179 176 184 182 180 179 173 173 168 181 168 162 167 161 164 170 167 165 166 165 168 168
254 235 232 223 225 237 251 228 233 251 245 239 246 254 246 251 272 284 218 323 200 183 239 226 255 261 266 268 264 257 245 238 238 243 250 250 251 248 245 246 247 249 247 240 231 213 200 190 183 177 184 186 177 178 179 177 177 177 181 181 179 181 183 181 185 184 180 171 153 125 130 136 144 167 152 145 147 156 154 170 173 176 169 169 168 170
228 213 208 204 213 215 237 231 223 241 257 234 233 240 255 249 243 236 272 314 285 298 291 299 283 269 232 257 261 256 243 249 250 250 252 256 253 250 253 261 251 246 240 238 232 215 189 183 188 189 188 171 181 183 183 179 180 182 184 182 180 181 185 185 181 178 162 144 130 117 105 107 93 88 138 148 177 181 175 166 184 187 171 167 167 171
253 244 166 191 214 225 233 245 218 212 256 250 228 210 236 243 256 261 278 317 313 311 246 197 306 267 199 221 240 246 272 230 240 236 244 247 250 253 251 250 252 242 237 229 220 202 192 191 188 185 176 183 188 189 188 180 181 179 182 181 182 182 184 184 180 173 167 171 164 156 156 168 175 175 176 190 187 183 186 190 173 160 172 169 169 174
232 210 176 195 203 223 214 223 221 186 240 259 256 201 226 232 240 258 273 345 278 254 298 129 204 287 151 232 223 245 236 246 251 217 236 239 243 246 243 246 250 235 235 236 228 194 188 192 181 187 187 190 191 194 174 179 183 182 181 182 182 182 183 180 179 176 173 175 181 181 183 182 185 187 203 195 185 184 182 158 172 175 172 174 170 178
201 199 192 211 211 212 213 238 230 187 227 255 222 180 206 230 237 246 233 199 250 226 263 129 126 273 291 230 216 199 215 229 243 246 242 240 240 241 243 241 243 240 223 210 211 198 192 184 184 191 196 190 194 174 173 181 183 183 181 180 182 182 183 183 177 181 183 182 184 187 191 192 196 197 193 183 183 174 162 167 174 170 177 175 174 171
178 206 192 210 213 204 214 223 194 168 194 228 224 163 198 206 223 204 181 219 239 5 276 176 139 298 259 255 195 191 217 230 234 238 238 236 237 241 246 244 237 239 222 200 200 198 190 190 198 194 190 194 172 175 181 183 182 179 178 179 181 186 184 183 182 184 188 189 187 189 190 197 207 197 183 170 164 167 167 171 171 174 174 173 173 174
299 181 207 183 165 218 225 98 159 171 218 255 120 80 75 64 65 69 122 2 330 33 267 173 161 218 281 258 198 186 199 211 223 226 232 229 228 235 244 247 244 245 223 213 209 195 191 194 197 192 173 170 186 180 179 177 175 179 175 181 182 189 186 184 185 187 190 191 187 192 195 198 193 181 162 167 171 173 173 177 177 175 174 176 175 177
228 322 169 134 210 220 120 120 92 276 214 113 70 66 6 25 20 20 74 91 17 254 258 156 189 176 266 286 171 132 208 204 210 224 239 237 240 247 249 250 252 241 213 212 206 196 193 190 176 155 177 184 176 178 176 178 179 178 180 182 187 191 186 185 187 187 193 192 193 198 197 196 190 182 171 169 180 176 177 182 181 178 179 177 180 175
268 64 175 255 83 86 103 78 358 80 89 102 96 116 29 328 17 35 345 54 190 267 211 176 181 185 229 286 289 205 259 202 185 202 221 227 239 240 244 248 252 248 219 191 172 171 162 143 166 174 182 182 182 174 183 183 179 184 185 184 190 191 192 188 189 190 195 194 198 201 197 197 193 181 183 185 184 184 183 182 179 175 168 180 176 180
257 230 209 8 222 145 133 85 324 16 26 118 91 68 184 264 28 320 35 287 200 239 188 211 170 330 238 239 291 290 240 212 212 202 212 217 232 243 245 239 245 237 192 173 177 164 172 180 180 186 187 177 185 190 186 186 185 185 187 188 190 198 192 192 190 195 195 195 200 200 198 199 191 192 191 190 187 184 183 179 175 173 180 173 177 187
275 288 173 230 18 216 130 189 196 321 214 132 157 156 137 250 224 265 253 238 303 275 235 209 183 240 276 291 218 246 251 219 204 214 219 216 222 237 234 236 233 211 192 182 175 181 184 187 188 187 185 189 191 190 188 187 187 188 190 191 195 201 192 194 193 196 195 202 202 199 200 197 192 196 194 193 189 185 184 179 180 180 180 180 186 182
298 305 225 135 239 181 184 203 204 199 154 195 120 157 195 168 150 215 226 238 239 256 290 234 107 234 87 247 207 206 229 233 215 214 221 224 229 242 237 256 265 181 197 176 178 188 191 191 187 188 190 191 192 190 188 189 191 186 193 194 200 199 197 194 197 194 201 204 201 200 201 199 196 197 196 197 190 181 181 183 181 184 181 183 184 185
219 242 264 182 234 150 185 216 187 93 81 199 156 81 45 228 155 231 231 217 289 338 305 183 214 196 230 233 257 268 288 270 226 222 218 237 246 257 260 248 234 207 185 186 191 199 204 196 190 192 191 194 192 190 190 191 188 193 200 199 201 201 196 196 195 199 202 202 197 197 199 202 199 197 194 194 193 189 184 181 182 183 184 184 177 175
313 262 267 158 22 175 186 36 185 149 215 220 121 193 213 128 192 266 321 281 142 310 262 146 272 271 313 275 228 230 214 233 220 230 230 232 241 240 237 231 218 204 192 192 201 202 201 190 199 197 196 193 191 190 196 196 193 196 195 196 202 203 197 199 201 202 201 199 195 201 200 196 198 197 196 196 194 188 183 180 183 181 183 172 171 169
219 260 36 163 228 322 179 10 30 324 140 103 196 229 88 96 121 151 211 327 251 221 268 159 243 288 319 287 24 54 265 260 260 236 225 226 229 234 236 227 212 204 200 201 208 209 196 197 201 200 201 196 193 197 200 199 199 199 197 200 200 197 199 203 200 199 198 197 202 202 199 200 199 199 199 192 189 185 180 182 179 172 169 179 170 164
182 268 238 221 101 302 345 129 317 332 9 157 193 236 132 246 243 239 99 232 261 247 263 279 273 264 252 263 296 306 211 229 225 227 225 231 238 242 245 244 231 240 233 208 213 206 209 206 203 203 204 205 207 205 205 210 196 196 203 206 202 203 205 201 197 199 201 201 205 202 201 199 198 198 195 190 180 179 186 184 179 176 173 156 161 159
74 248 251 295 148 121 15 118 219 188 310 28 32 351 279 98 186 157 199 173 169 254 269 273 286 271 251 203 214 218 225 226 216 226 230 228 227 230 233 233 216 199 204 213 218 217 213 212 207 202 204 204 203 198 200 194 190 200 206 201 206 210 203 196 199 199 202 204 202 201 199 200 199 194 190 185 178 184 189 185 176 169 164 171 160 163
252 161 252 128 284 84 239 188 202 170 187 211 211 281 315 231 228 119 314 173 207 229 226 258 278 270 263 204 186 220 225 220 202 214 230 233 236 235 236 237 228 205 204 209 208 211 213 216 219 220 216 216 229 250 189 188 200 205 194 206 208 203 200 200 203 197 205 199 202 198 197 198 192 192 185 179 183 184 186 182 178 175 168 151 168 160
254 213 241 118 270 208 243 174 190 192 192 188 188 209 201 175 192 219 247 207 213 214 222 214 242 265 229 192 161 195 218 190 211 200 212 228 234 235 240 240 220 200 224 219 214 208 211 218 221 222 216 215 200 208 209 210 200 193 199 205 202 204 208 205 205 201 202 198 198 199 200 193 187 183 180 181 183 185 182 180 180 170 158 169 166 166
205 175 240 230 213 238 253 245 205 199 196 194 183 222 206 210 203 207 240 221 280 275 324 231 253 254 237 177 142 210 200 214 221 193 214 227 229 228 230 240 253 246 230 216 210 210 212 212 215 211 205 202 203 211 212 204 198 203 205 199 199 199 208 209 210 202 195 193 196 200 193 181 182 180 181 182 185 188 182 180 175 171 169 169 165 169
16 320 248 257 277 332 308 11 62 267 233 328 306 283 199 224 218 235 247 246 247 175 211 227 240 255 261 102 293 273 215 207 210 193 220 237 236 237 234 223 234 236 237 242 235 230 216 222 220 186 197 207 211 211 214 213 212 208 202 200 198 203 208 204 203 198 195 194 194 188 179 185 183 178 182 187 188 187 182 177 175 173 172 167 163 166
0 300 259 259 271 293 309 314 286 52 92 204 215 235 238 253 252 250 268 39 254 223 232 229 246 246 264 218 258 281 311 255 242 245 229 236 249 254 266 271 267 270 288 279 252 236 237 229 208 214 214 212 214 216 214 214 214 204 204 200 202 209 207 202 194 190 193 191 187 183 184 184 181 185 188 190 186 186 177 176 171 174 171 161 164 164
263 277 308 258 239 240 240 237 246 250 205 214 200 237 240 232 238 252 245 231 249 233 238 243 258 254 274 291 285 274 283 299 301 286 287 219 239 275 271 262 263 264 261 270 277 285 254 230 225 230 222 217 221 219 215 213 214 214 209 205 204 206 195 196 189 194 189 187 185 186 186 186 186 190 190 188 185 180 174 170 171 171 172 169 165 165
202 153 215 230 235 242 244 250 251 110 75 177 238 229 240 241 239 241 260 250 244 255 244 246 256 272 283 295 290 289 282 280 279 278 279 288 282 269 254 256 259 257 253 252 254 260 270 269 248 232 226 225 221 217 217 214 213 212 209 209 204 202 196 193 186 189 188 186 188 185 189 188 192 191 188 186 179 170 169 171 171 172 175 176 170 167
147 220 224 230 233 239 248 256 262 269 267 258 245 252 249 241 244 238 231 249 269 285 263 250 269 281 280 288 284 288 289 281 272 273 274 261 249 253 248 235 243 253 264 285 271 253 244 243 242 237 232 226 227 225 225 225 220 213 205 206 203 198 191 187 186 187 187 184 189 192 194 195 189 186 184 175 166 167 170 169 172 176 172 169 171 172
182 229 228 227 242 236 239 247 257 261 256 256 258 261 260 256 242 240 240 241 238 240 255 261 266 266 263 259 265 269 274 274 279 275 269 268 267 253 244 252 254 252 254 242 245 242 241 241 240 237 233 232 233 231 228 225 223 216 217 215 200 193 198 188 183 184 186 188 193 197 194 184 179 176 169 168 166 170 173 173 172 168 165 170 170 170
186 234 235 226 242 234 236 239 241 247 249 252 249 249 251 255 257 250 251 251 247 252 257 258 252 250 250 252 249 252 256 268 278 280 278 275 270 266 258 252 249 255 258 244 239 241 239 237 238 238 233 233 229 230 230 226 221 215 211 209 199 196 197 171 187 184 188 192 197 192 181 177 173 172 169 170 175 173 168 165 162 160 165 171 170 162
210 215 194 233 244 238 234 236 233 237 237 248 245 245 246 250 252 250 251 252 258 257 252 252 252 255 250 252 253 256 263 272 276 278 275 272 272 271 266 264 263 259 257 257 246 240 237 233 233 237 238 238 236 232 229 224 220 218 216 212 200 199 188 183 186 189 190 195 191 180 173 172 174 167 173 174 166 165 164 165 164 165 166 165 163 163
192 250 203 219 237 237 224 234 230 232 232 236 241 248 249 244 247 248 250 243 241 249 250 250 251 253 250 247 252 257 263 264 264 263 266 268 271 273 269 264 268 264 259 255 247 238 242 235 230 233 236 238 237 234 231 229 224 215 217 206 203 197 181 185 187 190 194 191 176 176 174 174 167 169 172 168 172 169 168 164 165 168 168 165 165 166
195 206 224 225 243 241 227 229 232 235 238 236 229 235 238 241 240 242 241 245 240 242 249 249 249 244 248 246 251 249 249 250 251 254 259 263 267 269 275 279 271 266 260 257 253 238 232 231 227 229 234 236 236 232 229 224 217 214 214 205 206 173 178 187 190 189 187 180 177 177 174 168 169 171 172 176 170 168 166 167 168 168 167 173 170 161
207 230 242 219 255 253 226 247 239 239 221 227 208 219 221 233 237 239 239 239 243 234 240 238 250 253 256 251 244 245 245 245 246 248 248 259 276 286 278 268 262 261 260 254 245 237 228 229 233 233 230 231 231 226 228 217 212 217 212 202 174 174 185 183 187 183 182 176 179 175 172 170 171 175 175 170 167 166 169 170 176 173 170 163 163 169
226 222 237 220 256 259 254 257 257 231 244 231 218 219 222 231 236 243 244 243 249 251 253 254 252 250 247 247 247 246 247 251 252 258 264 267 262 262 269 274 275 270 262 258 259 249 239 237 240 242 240 237 233 233 232 231 220 221 181 163 172 182 176 182 177 178 178 179 178 172 172 173 175 175 172 170 169 170 174 175 171 170 171 170 171 171
241 238 244 238 239 265 246 236 248 247 91 344 197 204 214 233 239 251 261 258 256 252 249 249 248 249 248 251 252 253 253 256 265 270 276 275 281 293 295 291 289 289 286 277 273 273 267 243 232 228 233 235 234 238 227 231 218 191 189 167 172 173 176 174 177 181 177 180 180 178 178 175 176 174 172 172 172 174 176 176 174 170 164 160 162 162
228 240 233 257 209 245 235 231 244 277 271 204 92 231 190 207 204 215 245 244 241 254 253 255 257 260 264 270 278 282 279 279 272 275 306 3 358 355 349 337 323 310 305 299 290 280 270 253 232 233 238 247 232 229 232 229 181 169 151 162 172 168 171 171 180 185 185 185 182 182 179 177 174 173 172 171 172 177 174 171 165 162 158 159 165 165
223 228 218 240 229 220 245 246 254 234 244 251 227 216 217 219 220 227 235 260 32 10 16 9 357 6 11 8 5 345 321 295 277 279 17 353 3 349 341 344 345 345 340 331 326 322 313 302 290 266 230 240 243 247 239 155 152 150 159 166 163 166 176 179 192 189 186 189 184 180 176 175 172 171 172 172 178 177 174 168 163 167 166 166 163 170
234 237 246 239 263 249 248 249 249 256 261 32 349 324 272 248 233 245 254 258 35 11 12 18 20 19 20 10 357 2 25 26 344 334 336 348 336 343 338 333 337 339 341 344 335 325 321 321 307 304 308 299 307 311 139 142 145 150 166 168 171 176 180 195 194 187 192 188 173 169 170 171 172 174 174 178 178 174 170 172 171 165 162 166 166 167
262 249 251 253 255 242 251 251 249 243 305 340 332 341 328 317 342 11 272 151 4 7 3 12 9 4 2 1 357 10 20 357 332 321 320 320 323 318 322 325 328 335 335 338 340 338 331 338 356 345 349 337 279 175 145 142 139 149 152 159 156 179 200 206 202 182 142 145 161 166 169 175 177 176 176 175 171 170 172 163 160 165 164 162 161 160
282 255 217 247 253 259 260 268 272 277 75 13 355 333 342 319 78 208 237 4 338 357 1 1 5 351 355 346 359 343 329 305 288 292 300 304 311 316 316 319 318 318 319 328 326 327 340 337 348 340 324 322 335 356 104 137 131 143 149 155 170 200 209 193 156 159 164 155 160 171 175 176 178 176 176 173 170 165 165 169 162 160 165 161 156 138
326 294 285 251 242 241 249 257 258 275 93 1 355 22 345 332 260 31 338 295 322 349 346 344 344 343 336 331 323 314 297 293 286 289 299 305 305 304 307 311 318 318 319 318 317 323 325 321 319 314 316 321 308 211 168 146 145 155 156 164 200 216 178 147 156 148 158 167 171 172 173 173 170 170 168 164 160 164 169 167 168 167 163 159 155 147
279 303 293 297 307 303 286 286 274 242 35 34 352 359 56 70 275 293 307 321 350 339 327 327 329 339 334 321 313 301 300 300 301 302 306 311 315 315 317 319 320 320 319 325 325 323 324 316 310 307 294 286 283 276 232 178 160 171 170 184 218 181 143 152 147 153 158 164 167 172 169 169 167 166 164 165 166 162 164 163 165 167 165 160 159 151
269 278 270 265 351 324 301 279 238 10 328 1 37 327 331 313 272 284 259 322 309 326 323 319 324 321 325 315 309 311 310 310 310 313 312 311 313 315 316 317 316 317 315 307 301 299 311 309 301 301 300 278 215 196 185 182 182 201 198 221 172 136 146 149 154 153 159 167 172 169 173 171 167 162 162 163 162 162 162 166 167 167 172 167 154 144
178 158 243 287 300 314 270 292 297 305 318 313 329 318 308 317 309 182 300 287 309 311 316 321 317 320 320 312 306 306 310 315 315 318 321 320 320 321 323 324 324 321 319 318 314 314 309 300 297 297 299 290 248 223 206 199 193 196 216 226 149 163 159 160 159 166 172 174 170 171 164 158 164 164 161 164 163 164 167 167 167 171 173 148 161 159
309 297 294 277 273 266 252 242 280 292 301 302 294 294 306 300 165 201 249 311 321 312 308 306 311 310 316 321 323 315 313 314 320 324 325 326 324 324 325 326 324 323 318 317 316 313 310 304 299 299 298 296 269 243 236 227 207 202 224 161 164 159 159 156 164 171 175 169 168 169 161 159 161 164 167 168 173 173 171 168 173 149 153 166 157 160
251 265 284 269 292 300 282 300 266 283 298 299 296 285 215 229 227 280 322 318 311 313 314 313 319 332 329 331 336 324 321 321 320 318 320 320 320 319 319 320 318 320 321 317 313 312 309 309 307 301 293 287 275 235 239 233 233 240 291 147 163 159 161 166 171 174 170 173 169 165 168 170 171 169 170 173 173 171 170 173 169 146 155 169 167 173
281 296 293 275 277 258 278 297 303 295 276 272 292 306 308 284 288 318 333 325 325 333 342 343 346 336 325 325 319 317 313 314 315 317 314 313 311 312 313 312 312 311 311 309 308 311 309 308 305 298 295 288 282 252 240 235 240 237 213 163 163 159 159 173 177 177 179 175 169 171 176 178 170 168 173 178 175 174 165 166 163 169 177 176 171 167
264 328 264 282 287 293 288 280 262 266 278 288 289 295 297 308 345 3 22 6 355 357 336 335 332 316 321 308 310 311 307 309 308 307 306 306 307 307 308 308 308 307 306 309 307 308 308 304 300 294 288 282 275 260 239 242 244 232 204 184 170 165 172 180 181 175 173 172 168 175 177 175 175 180 176 177 181 187 179 155 169 171 105 173 177 179
281 260 265 279 282 274 277 290 305 305 296 300 299 292 303 6 41 347 338 5 342 341 330 321 315 305 300 305 309 310 309 306 305 305 303 303 302 305 306 305 303 302 301 300 302 301 299 297 296 295 291 287 283 271 256 250 243 226 211 191 180 174 179 178 175 177 177 174 176 174 175 178 179 179 178 178 179 170 166 194 183 175 172 178 189 191
239 252 261 262 259 272 266 263 269 277 285 276 285 301 50 83 19 341 323 308 305 295 298 306 304 308 303 305 311 307 300 300 301 304 300 299 300 303 304 306 306 304 302 302 302 299 295 294 293 292 289 287 286 278 266 260 253 230 213 195 185 182 185 174 178 182 178 176 188 184 182 178 178 181 179 177 175 169 146 158 175 184 190 184 178 180